Imperial, NE

4:53 PM MST on February 18, 2018 (GMT -0700)
Imperial Municipal

Weather History for KIML - August, 2014

Change the Weather History Date:

Thursday, August 28, 2014

  Actual Average Record
Temperature  
Mean Temperature 69 °F 71 °F  
Max Temperature 79 °F 85 °F 106 °F (1899)
Min Temperature 59 °F 57 °F 41 °F (1964)
Degree Days  
Heating Degree Days 0 1  
Month to date heating degree days 0 2  
Since 1 June heating degree days 40 38  
Cooling Degree Days 4 7  
Month to date cooling degree days 292 262  
Year to date cooling degree days 829 846  
Since 1 June cooling degree days 768 802  
Growing Degree Days 18 (Base 50)    
Moisture  
Dew Point 59 °F    
Average Humidity 74    
Maximum Humidity 93    
Minimum Humidity 54    
Precipitation  
Precipitation 0.06 in 0.08 in 3.70 in (1933)
Sea Level Pressure  
Sea Level Pressure 29.93 in    
Wind  
Wind Speed 9 mph (NW)    
Max Wind Speed 24 mph    
Max Gust Speed 29 mph    
Visibility 10 miles    
Events Rain , Thunderstorm    
T = Trace of Precipitation, MM = Missing Value Source: NWS Daily Summary

Daily Weather History Graph

Daily Weather History Graph

Search for Another Location

Airport or City:

Trip Planner

Search our weather history database for the weather conditions in past years. The results will help you decide how hot, cold, wet, or windy it might be!

Date:

Astronomy

Aug. 28, 2014 Rise Set
Actual Time 6:09 AM MDT 7:24 PM MDT
Civil Twilight 5:41 AM MDT 7:52 PM MDT
Nautical Twilight 5:07 AM MDT 8:26 PM MDT
Astronomical Twilight 4:32 AM MDT 9:02 PM MDT
Moon 9:04 AM MDT (8/28) 8:48 PM MDT (8/28)
Length of Visible Light 14h 11m
Length of Day
13h 14m
Waxing Crescent, 9% of the Moon is Illuminated
Aug 28
Waxing Crescent
Sep 2
First Quarter
Sep 8
Full
Sep 15
Last Quarter
Sep 24
New

Hourly Weather History & Observations

Time (MDT) Temp. Dew Point Humidity Pressure Visibility Wind Dir Wind Speed Gust Speed Precip Events Conditions
12:53 AM 62.1 °F 60.1 °F 93% 29.95 in 7.0 mi Calm Calm - 0.02 in Rain , Thunderstorm Light Rain
1:07 AM 62.6 °F 59.0 °F 88% 30.06 in 10.0 mi SSW 11.5 mph - N/A Rain Light Rain
1:53 AM 62.1 °F 60.1 °F 93% 29.95 in 10.0 mi West 10.4 mph - 0.07 in Rain Light Rain
2:53 AM 61.0 °F 59.0 °F 93% 29.94 in 10.0 mi SSW 6.9 mph - 0.00 in   Clear
3:53 AM 59.0 °F 57.0 °F 93% 29.88 in 10.0 mi Calm Calm - N/A   Clear
4:53 AM 60.1 °F 57.9 °F 93% 29.88 in 10.0 mi NW 5.8 mph - N/A   Clear
5:53 AM 60.1 °F 57.9 °F 93% 29.91 in 10.0 mi West 9.2 mph - N/A   Clear
6:53 AM 61.0 °F 57.9 °F 90% 29.93 in 10.0 mi West 8.1 mph - N/A   Clear
7:53 AM 64.9 °F 61.0 °F 87% 29.94 in 10.0 mi WNW 5.8 mph - N/A   Clear
8:41 AM 68.0 °F 62.1 °F 81% 30.00 in 10.0 mi NW 10.4 mph - N/A   Mostly Cloudy
8:53 AM 66.2 °F 62.6 °F 88% 30.00 in 10.0 mi NW 8.1 mph - N/A   Mostly Cloudy
9:35 AM 69.1 °F 62.1 °F 78% 30.01 in 10.0 mi NW 9.2 mph - N/A   Mostly Cloudy
9:42 AM 70.0 °F 62.1 °F 76% 30.01 in 10.0 mi NNW 9.2 mph - N/A   Scattered Clouds
9:53 AM 70.0 °F 62.1 °F 76% 29.94 in 10.0 mi North 10.4 mph - N/A   Scattered Clouds
10:53 AM 72.0 °F 62.1 °F 71% 29.94 in 10.0 mi NW 8.1 mph - N/A   Scattered Clouds
11:18 AM 73.0 °F 62.1 °F 68% 30.00 in 10.0 mi NNW 12.7 mph - N/A   Mostly Cloudy
11:53 AM 73.9 °F 61.0 °F 64% 29.92 in 10.0 mi NNW 10.4 mph - N/A   Mostly Cloudy
12:13 PM 73.0 °F 61.0 °F 66% 29.98 in 10.0 mi North 9.2 mph - N/A   Scattered Clouds
12:53 PM 75.9 °F 61.0 °F 60% 29.89 in 10.0 mi NW 10.4 mph - N/A   Partly Cloudy
1:53 PM 77.0 °F 61.0 °F 58% 29.88 in 10.0 mi WNW 9.2 mph - N/A   Scattered Clouds
2:53 PM 78.1 °F 62.1 °F 58% 29.88 in 10.0 mi NW 16.1 mph - N/A   Scattered Clouds
3:53 PM 78.1 °F 60.1 °F 54% 29.87 in 10.0 mi NNW 18.4 mph 24.2 mph N/A   Partly Cloudy
4:53 PM 75.9 °F 59.0 °F 56% 29.87 in 10.0 mi NNW 18.4 mph 27.6 mph N/A   Partly Cloudy
5:53 PM 73.0 °F 57.9 °F 59% 29.88 in 10.0 mi NNW 15.0 mph - N/A   Clear
6:53 PM 69.1 °F 55.9 °F 63% 29.89 in 10.0 mi NNW 13.8 mph - N/A   Clear
7:53 PM 66.0 °F 55.9 °F 70% 29.91 in 10.0 mi NW 5.8 mph - N/A   Clear
8:53 PM 64.0 °F 55.9 °F 75% 29.91 in 10.0 mi NW 6.9 mph - N/A   Clear
9:53 PM 62.1 °F 57.0 °F 84% 29.91 in 10.0 mi West 6.9 mph - N/A   Clear
10:53 PM 61.0 °F 55.9 °F 83% 29.90 in 10.0 mi WNW 6.9 mph - N/A   Clear
11:53 PM 60.1 °F 55.9 °F 86% 29.89 in 10.0 mi WNW 4.6 mph - N/A   Clear